DW7733 Weather Reports


Display with metric or nautical units.
time (UTC)temp
F
wind
direction
speed
MPH
gust
MPH
rain 1hr
in
rain 24hr
in
rain mn
in
humidity
%
barometer
mb
20260905080155 64 67 0.0 0.0 0.00 0.04 0.00 90 1013.3
20260905074558 64 65 0.0 2.0 0.00 0.04 0.00 90 1013.2
20260905073102 64 56 0.0 2.0 0.00 0.04 0.00 92 1013.1
20260905071552 64 152 0.0 0.0 0.00 0.04 0.00 93 1013.0
20260905070051 64 152 0.0 1.0 0.00 0.04 0.00 93 1013.3
20260905064550 64 152 0.0 2.0 0.00 0.04 0.00 94 1013.3
20260905063048 64 142 0.0 0.0 0.00 0.04 0.00 94 1013.3
20260905061548 64 142 0.0 0.0 0.00 0.04 0.00 94 1013.4
20260905060047 64 142 0.0 1.0 0.00 0.04 0.00 94 1013.3
20260905054548 63 142 0.0 0.0 0.00 0.04 0.00 94 1013.4
20260905053110 63 142 0.0 0.0 0.00 0.04 0.00 94 1013.4
20260905051543 64 142 0.0 1.0 0.00 0.04 0.00 94 1013.5
20260905050041 64 142 0.0 1.0 0.00 0.04 0.00 94 1013.6
20260905044538 65 142 0.0 0.0 0.00 0.04 0.00 93 1013.7
20260905043036 65 143 0.0 1.0 0.00 0.04 0.00 92 1013.7
20260905041537 66 142 0.0 1.0 0.00 0.04 0.00 91 1013.7
20260905040031 66 121 0.0 1.0 0.00 0.04 0.00 89 1013.7
20260905034530 67 138 0.0 5.0 0.00 0.04 0.04 88 1013.8
20260905033039 67 74 1.0 3.0 0.00 0.04 0.04 88 1013.9
20260905031529 68 65 0.0 0.0 0.00 0.04 0.04 87 1013.9
20260905030131 69 88 0.0 3.0 0.00 0.04 0.04 87 1013.9
20260905024527 70 68 0.0 4.0 0.00 0.04 0.04 87 1014.1
20260905023026 70 37 6.0 7.0 0.00 0.04 0.04 87 1014.2
20260905021531 69 75 1.0 3.0 0.00 0.04 0.04 87 1014.2
20260905020029 69 50 0.0 2.0 0.00 0.04 0.04 88 1014.0
20260905014526 69 132 0.0 4.0 0.00 0.04 0.04 88 1013.9
20260905013024 68 58 2.0 4.0 0.00 0.04 0.04 89 1014.0
20260905011523 67 131 0.0 1.0 0.00 0.04 0.04 88 1013.9
20260905010022 67 132 0.0 0.0 0.00 0.04 0.04 87 1013.9
20260905004524 67 129 0.0 1.0 0.00 0.04 0.04 87 1013.6
20260905003021 67 129 0.0 1.0 0.00 0.04 0.04 88 1013.4
20260905001521 67 128 0.0 1.0 0.00 0.04 0.04 87 1013.3
20260905000020 68 129 0.0 0.0 0.00 0.04 0.04 86 1013.4
20260904234519 69 128 0.0 0.0 0.00 0.04 0.04 88 1013.3
20260904233019 69 129 0.0 0.0 0.00 0.04 0.04 86 1013.4
20260904231522 70 129 0.0 0.0 0.00 0.04 0.04 81 1013.5
20260904230021 70 128 0.0 0.0 0.00 0.04 0.04 81 1013.2
20260904224517 71 128 0.0 0.0 0.00 0.05 0.04 82 1013.2
20260904223023 72 128 0.0 1.0 0.00 0.05 0.04 81 1013.1
20260904221516 72 112 0.0 1.0 0.00 0.05 0.04 84 1012.8
20260904220017 72 63 0.0 3.0 0.00 0.05 0.04 84 1012.7
20260904214518 72 62 2.0 8.0 0.00 0.12 0.04 85 1012.5
20260904213025 72 56 1.0 7.0 0.00 0.12 0.04 86 1012.4
20260904211518 72 133 1.0 8.0 0.00 0.12 0.04 86 1012.3
20260904210023 72 48 6.0 12.0 0.00 0.12 0.04 86 1012.4
20260904204519 72 38 8.0 9.0 0.00 0.24 0.04 87 1012.6
20260904203010 72 45 6.0 9.0 0.00 0.24 0.04 87 1012.6
20260904201509 73 30 6.0 9.0 0.00 0.24 0.04 86 1012.7
20260904200007 73 47 4.0 10.0 0.00 0.24 0.04 87 1012.7
20260904194505 73 44 3.0 6.0 0.00 0.24 0.04 89 1012.6
20260904193004 73 60 4.0 6.0 0.00 0.24 0.04 89 1012.8
20260904191601 73 27 3.0 6.0 0.00 0.24 0.04 89 1013.0
20260904190057 72 44 4.0 10.0 0.00 0.24 0.04 93 1013.0
20260904184557 71 33 7.0 8.0 0.00 0.24 0.04 92 1013.1
20260904183053 72 36 6.0 7.0 0.00 0.24 0.04 91 1013.2
20260904181553 72 20 2.0 5.0 0.00 0.24 0.04 91 1013.4
20260904180052 72 36 3.0 6.0 0.00 0.24 0.04 92 1013.6
20260904174550 71 52 3.0 7.0 0.00 0.24 0.04 92 1013.7
20260904173110 71 18 3.0 6.0 0.00 0.24 0.04 93 1014.0
20260904171603 71 33 2.0 3.0 0.02 0.24 0.04 93 1014.0
20260904170046 70 86 0.0 2.0 0.02 0.24 0.04 94 1014.2
20260904164553 70 242 0.0 1.0 0.02 0.24 0.04 94 1014.5
20260904163044 70 240 0.0 0.0 0.02 0.24 0.04 94 1014.8
20260904161543 70 240 0.0 0.0 0.00 0.23 0.02 93 1015.2
20260904160042 70 240 0.0 1.0 0.00 0.23 0.02 93 1015.4
20260904154541 70 219 0.0 4.0 0.00 0.23 0.02 94 1015.7
20260904153039 70 255 0.0 4.0 0.00 0.23 0.02 94 1015.6
20260904151539 69 248 0.0 1.0 0.00 0.23 0.02 91 1015.4
20260904150059 67 165 0.0 0.0 0.00 0.23 0.02 85 1015.4
20260904144535 67 165 0.0 0.0 0.00 0.23 0.02 82 1015.3
20260904143035 66 165 0.0 0.0 0.00 0.23 0.02 84 1015.2
20260904141537 66 165 0.0 0.0 0.02 0.23 0.02 85 1015.1
20260904140038 66 146 0.0 0.0 0.02 0.23 0.02 84 1015.1
20260904134543 66 148 0.0 1.0 0.02 0.23 0.02 80 1015.2
20260904133030 66 148 0.0 2.0 0.02 0.23 0.02 76 1014.8
20260904131531 66 149 0.0 2.0 0.01 0.21 0.01 74 1014.4
20260904130034 65 141 0.0 1.0 0.00 0.20 0.00 74 1014.4
20260904124529 65 141 0.0 2.0 0.00 0.20 0.00 74 1014.6
20260904123028 65 146 0.0 1.0 0.00 0.20 0.00 74 1014.9
20260904121528 65 146 0.0 0.0 0.00 0.20 0.00 74 1014.8
20260904120026 64 148 0.0 0.0 0.00 0.20 0.00 75 1014.6
20260904114532 64 148 0.0 1.0 0.00 0.20 0.00 76 1014.3
20260904113025 64 149 0.0 1.0 0.00 0.20 0.00 77 1014.2
20260904111528 64 141 0.0 2.0 0.00 0.20 0.00 78 1014.0
20260904110023 64 145 0.0 2.0 0.00 0.20 0.00 79 1013.9
20260904104519 64 141 0.0 2.0 0.00 0.20 0.00 80 1013.8
20260904103016 64 149 0.0 2.0 0.00 0.20 0.00 81 1013.6
20260904101516 64 153 0.0 2.0 0.00 0.20 0.00 82 1013.5
20260904100014 64 141 0.0 2.0 0.00 0.20 0.00 82 1013.5
20260904094524 64 138 0.0 2.0 0.00 0.21 0.00 83 1013.5
20260904093011 64 145 0.0 2.0 0.00 0.21 0.00 85 1013.8
20260904091511 64 141 0.0 2.0 0.00 0.21 0.00 86 1013.8
20260904090009 64 142 0.0 2.0 0.00 0.21 0.00 88 1013.7
20260904084512 64 136 1.0 2.0 0.00 0.21 0.00 90 1013.6
20260904083010 65 136 1.0 2.0 0.00 0.21 0.00 91 1014.0
20260904081509 65 137 1.0 2.0 0.00 0.21 0.00 93 1013.5